This demonstration page uses our WeatherBlox Daily Observations layout. Learn more.

Left ArrowRight Arrow

39.51506, -84.39828

Hourly Observations for June 27, 2016

Temp ( °F °C ) Dew Point ( °F °C ) Humidity (%) Winds ( mph kmh ) Pressure ( in mb ) Visibility ( mi km ) Precip ( " mm )
12:15 am 00:15 Clear 74 23.6 69 20.5 83 83 N N/A 30.03 1017 7 11 N/A
12:35 am 00:35 Partly Cloudy 75 24.1 70 20.9 82 82 N N/A 30.03 1017 7 11 N/A
12:55 am 00:55 Hazy 75 24.1 70 20.9 82 82 N N/A 30.03 1017 4 6 N/A
1:15 am 01:15 Hazy 74 23.6 69 20.5 83 83 N N/A 30.03 1017 4 6 N/A
1:35 am 01:35 Partly Cloudy 74 23.6 69 20.5 83 83 N N/A 30.03 1017 7 11 N/A
1:55 am 01:55 Hazy 74 23.6 69 20.5 83 83 N N/A 30.03 1017 5 8 N/A
2:15 am 02:15 Mostly Cloudy with Haze 74 23.6 69 20.6 83 83 N N/A 30.03 1017 4 6 N/A
2:35 am 02:35 Hazy 74 23.6 69 20.6 83 83 N N/A 30.00 1016 3 5 N/A
2:55 am 02:55 Hazy 74 23.6 69 20.6 83 83 N N/A 30.00 1016 4 6 N/A
3:15 am 03:15 Hazy 74 23.6 69 20.6 83 83 NNW 3 6 30.00 1016 5 8 N/A
3:35 am 03:35 Mostly Cloudy 74 23.6 69 20.6 83 83 N N/A 30.00 1016 7 11 N/A
3:55 am 03:55 Cloudy 74 23.6 69 20.6 83 83 N N/A 30.00 1016 7 11 N/A
4:15 am 04:15 Mostly Cloudy 74 23.6 69 20.5 83 83 N N/A 30.00 1016 7 11 N/A
4:35 am 04:35 Mostly Cloudy with Haze 74 23.6 69 20.5 83 83 N N/A 30.03 1017 5 8 N/A
4:55 am 04:55 Mostly Cloudy with Haze 74 23.6 69 20.5 83 83 N N/A 30.03 1017 5 8 N/A
5:15 am 05:15 Mostly Cloudy 74 23.6 69 20.5 83 83 N N/A 30.03 1017 10 16 N/A
5:35 am 05:35 Cloudy 74 23.6 69 20.5 83 83 N N/A 30.03 1017 7 11 N/A
5:55 am 05:55 Mostly Cloudy 74 23.6 69 20.5 83 83 N N/A 30.03 1017 7 11 N/A
6:15 am 06:15 Mostly Cloudy with Haze 74 23.6 69 20.5 83 83 N N/A 30.03 1017 5 8 N/A
6:35 am 06:35 Cloudy with Haze 74 23.6 69 20.5 83 83 N N/A 30.03 1017 5 8 N/A
6:55 am 06:55 Mostly Cloudy 74 23.6 69 20.5 83 83 N N/A 30.03 1017 7 11 N/A
7:15 am 07:15 Mostly Cloudy 74 23.6 69 20.5 83 83 N N/A 30.03 1017 10 16 N/A
7:35 am 07:35 Mostly Cloudy with Light Rain 74 23.6 68 20 80 80 NNW 6 9 30.03 1017 10 16 N/A
7:55 am 07:55 Cloudy 74 23.6 68 19.8 79 79 N N/A 30.03 1017 10 16 N/A
8:15 am 08:15 Mostly Cloudy 76 24.7 69 20.8 79 79 N N/A 30.03 1017 10 16 N/A
8:35 am 08:35 Mostly Cloudy 77 25.1 70 21 78 78 N 3 6 30.03 1017 10 16 N/A
8:55 am 08:55 Partly Cloudy 78 25.3 70 20.9 77 77 N N/A 30.03 1017 10 16 N/A
9:15 am 09:15 Sunny 80 26.5 71 21.4 74 74 N N/A 30.06 1018 10 16 N/A
9:35 am 09:35 Sunny 80 26.7 70 21.1 71 71 N N/A 30.06 1018 10 16 N/A
9:55 am 09:55 Sunny 81 27.3 70 21.2 69 69 N 3 6 30.06 1018 10 16 N/A
10:15 am 10:15 Partly Cloudy 81 27.2 69 20.5 67 67 N 3 6 30.06 1018 10 16 N/A
10:35 am 10:35 Partly Cloudy 82 28 69 20.7 65 65 NW 3 6 30.06 1018 10 16 N/A
10:55 am 10:55 Sunny 83 28.3 69 20.3 62 62 NNW 3 6 30.06 1018 10 16 N/A
11:15 am 11:15 Sunny 83 28.6 67 19.2 57 57 N 3 6 30.06 1018 10 16 N/A
11:35 am 11:35 Sunny 83 28.6 64 17.9 52 52 N 3 6 30.06 1018 10 16 N/A
11:55 am 11:55 Sunny 83 28.6 62 16.7 49 49 NW 6 9 30.06 1018 10 16 N/A
12:15 pm 12:15 Sunny 84 29 63 17.2 49 49 WNW 5 7 30.03 1017 10 16 N/A
12:35 pm 12:35 Sunny 83 28.6 59 15.2 44 44 NW 6 9 30.06 1018 10 16 N/A
12:55 pm 12:55 Sunny 87 30.7 60 15.4 40 40 NW 5 7 30.03 1017 10 16 N/A
1:15 pm 13:15 Sunny 90 32.1 62 16.4 39 39 W 7 11 30.03 1017 10 16 N/A
1:35 pm 13:35 Partly Cloudy 90 32.1 60 15.4 36 36 NNW 7 11 30.00 1016 10 16 N/A
1:55 pm 13:55 Partly Cloudy 90 32.1 52 10.9 27 27 WNW 5 7 30.00 1016 10 16 N/A
2:15 pm 14:15 Sunny 90 32.1 53 11.5 28 28 N 7 11 30.00 1016 10 16 N/A
2:35 pm 14:35 Sunny 90 32.1 51 10.8 27 27 N 6 9 30.00 1016 10 16 N/A
2:55 pm 14:55 Sunny 90 32.1 48 8.9 24 24 NW 9 15 29.97 1015 10 16 N/A
3:15 pm 15:15 Sunny 90 32.1 47 8.4 23 23 NW 8 13 29.97 1015 10 16 N/A
3:35 pm 15:35 Sunny 90 32.1 47 8.5 23 23 NNW 6 9 29.97 1015 10 16 N/A
3:55 pm 15:55 Sunny 90 32.1 43 6.1 20 20 NW 7 11 29.97 1015 10 16 N/A
4:15 pm 16:15 Sunny 90 32.1 43 6.3 20 20 NW 12 19 29.97 1015 10 16 N/A
4:35 pm 16:35 Sunny 90 32.1 43 6.2 20 20 NW 7 11 29.94 1014 10 16 N/A
4:55 pm 16:55 Sunny 91 32.6 47 8.2 22 22 WNW 10 17 29.94 1014 10 16 N/A
5:15 pm 17:15 Sunny 92 33.4 48 8.9 22 22 NNW 14 22 29.94 1014 10 16 N/A
5:35 pm 17:35 Sunny 91 32.8 47 8.4 22 22 NW 5 7 29.94 1014 10 16 N/A
5:55 pm 17:55 Sunny 91 32.8 46 7.5 21 21 NW 7 11 29.94 1014 10 16 N/A
6:15 pm 18:15 Sunny 90 32.1 43 6.3 20 20 NNW 6 9 29.94 1014 10 16 N/A
6:35 pm 18:35 Sunny 90 32.1 45 7.1 21 21 NW 6 9 29.94 1014 10 16 N/A
6:55 pm 18:55 Sunny 90 32.1 43 6 19 19 NW 5 7 29.94 1014 10 16 N/A
7:15 pm 19:15 Sunny 90 32.1 46 7.7 22 22 NW 5 7 29.94 1014 10 16 N/A
7:35 pm 19:35 Sunny 90 32.1 49 9.4 25 25 WNW 5 7 29.94 1014 10 16 N/A
7:55 pm 19:55 Sunny 90 32.1 56 13.4 32 32 W 3 6 29.94 1014 10 16 N/A
8:15 pm 20:15 Sunny 88 30.9 59 15.2 39 39 W 6 9 29.94 1014 10 16 N/A
8:35 pm 20:35 Sunny 83 28.4 58 14.3 42 42 W 5 7 29.94 1014 10 16 N/A
8:55 pm 20:55 Sunny 80 26.5 64 17.8 59 59 WNW 3 6 29.97 1015 10 16 N/A
9:15 pm 21:15 Clear 78 25.3 62 16.5 58 58 W 3 6 29.97 1015 10 16 N/A
9:35 pm 21:35 Clear 76 24.5 63 17 63 63 W 3 6 30.00 1016 10 16 N/A
9:55 pm 21:55 Partly Cloudy 76 24.2 62 16.6 63 63 W 3 6 30.00 1016 10 16 N/A
10:15 pm 22:15 Partly Cloudy 74 23.6 63 17.2 67 67 W 3 6 30.00 1016 10 16 N/A
10:35 pm 22:35 Partly Cloudy 74 23.6 61 16.1 63 63 W 3 6 30.00 1016 10 16 N/A
10:55 pm 22:55 Mostly Cloudy 77 25 62 16.7 60 60 W 5 7 30.00 1016 10 16 N/A
11:15 pm 23:15 Mostly Cloudy 77 24.9 64 17.6 64 64 WSW 3 6 30.00 1016 10 16 N/A
11:35 pm 23:35 Cloudy 74 23.6 62 16.9 66 66 W 3 6 30.00 1016 10 16 N/A
11:55 pm 23:55 Mostly Cloudy 74 23.6 63 17.1 67 67 W 6 9 30.00 1016 10 16 N/A

Powered by AerisWeather